Lapse_Rate
7.2 7.1 7.1 7.1 6.8 7.4 7.1 6.7 6.8 6.8 6.7 6.2 6.2 6.0 6.1 6.1 5.9 6.1 6.2 6.0 5.9 5.9 5.8 5.7 5.6 5.5 5.7 5.7 5.7 5.6 5.5 5.4 5.4 5.5 5.5 5.5 5.4 5.4 5.3 5.5 5.7 5.7 5.6 5.5 5.5 5.6 5.7 5.8 5.9
7.4 7.4 7.2 7.1 8.3 8.0 7.2 6.7 6.7 6.7 6.6 6.4 6.3 6.0 5.9 6.3 6.3 6.4 6.3 6.0 5.8 5.7 5.6 5.6 5.5 5.5 5.6 5.4 5.5 5.6 5.5 5.4 5.2 5.3 5.4 5.4 5.5 5.5 5.5 5.5 5.6 5.7 5.7 5.7 5.7 5.7 5.8 5.8 5.8
7.5 7.7 7.4 7.2 7.9 7.8 7.5 7.0 6.6 6.6 6.5 6.4 6.4 6.2 6.4 6.3 6.2 6.2 6.1 6.0 5.9 5.7 5.7 5.6 5.5 5.5 5.6 5.6 5.6 5.5 5.3 5.2 5.2 5.2 5.4 5.4 5.5 5.5 5.6 5.7 5.6 5.6 5.7 5.7 5.8 5.9 5.8 5.9 5.8
7.7 7.9 7.6 8.2 7.7 7.0 6.9 6.6 6.7 6.4 6.5 6.6 6.3 6.7 6.8 6.4 6.4 6.3 6.2 6.0 5.9 5.7 5.7 5.7 5.6 5.5 5.6 5.6 5.5 5.5 5.3 5.2 5.3 5.4 5.4 5.4 5.6 5.7 5.6 5.7 5.6 5.6 5.6 5.6 5.8 5.8 5.8 5.9 5.9
7.7 7.6 8.6 8.4 7.7 7.2 6.8 6.7 6.7 6.8 6.4 6.3 6.6 6.9 7.0 6.8 6.3 6.4 6.3 6.0 5.9 5.8 5.7 5.8 5.8 5.6 5.7 5.6 5.5 5.4 5.4 5.5 5.4 5.4 5.3 5.4 5.5 5.5 5.5 5.6 5.7 5.6 5.6 5.8 5.7 5.6 5.5 5.7 5.7
7.1 7.6 9.4 8.7 7.9 7.3 6.7 6.7 6.6 6.7 6.7 6.9 6.9 6.9 6.9 6.8 6.5 6.5 6.3 6.1 6.0 6.0 5.9 5.8 5.8 5.7 5.7 5.5 5.6 5.6 5.6 5.6 5.5 5.5 5.4 5.4 5.4 5.4 5.4 5.4 5.4 5.4 5.6 5.7 5.7 5.7 5.6 5.6 5.6
7.9 7.9 8.7 8.2 8.0 7.8 7.3 7.4 6.9 6.8 6.5 6.6 6.8 6.4 6.8 6.7 6.6 6.5 6.4 6.2 6.3 6.1 6.0 5.9 5.8 5.7 5.6 5.4 5.5 5.6 5.6 5.5 5.5 5.6 5.5 5.3 5.3 5.4 5.4 5.4 5.2 5.2 5.4 5.6 5.6 5.7 5.7 5.7 5.8
7.9 7.9 8.7 8.5 8.1 8.0 7.8 7.7 7.5 7.0 7.0 6.8 6.6 6.6 6.9 7.0 6.7 6.5 6.3 6.4 6.2 6.3 6.2 6.1 5.9 5.8 5.6 5.4 5.4 5.5 5.4 5.5 5.5 5.6 5.4 5.1 5.1 5.1 5.2 5.1 5.1 5.0 5.4 5.5 5.6 5.5 5.7 5.7 5.6
8.4 8.5 9.2 8.7 8.3 8.1 8.0 7.6 7.8 7.5 7.1 6.7 6.5 6.1 6.6 6.9 6.9 6.7 6.6 6.5 6.4 6.3 6.3 6.1 6.1 5.9 5.7 5.7 5.6 5.6 5.5 5.6 5.6 5.5 5.3 5.0 4.9 5.0 5.2 5.0 5.0 5.1 5.3 5.3 5.4 5.5 5.6 5.7 5.7
8.1 8.8 8.7 8.7 8.3 8.5 8.6 7.8 7.8 7.6 7.2 6.8 6.6 6.6 6.8 6.6 6.8 6.7 6.7 6.6 6.5 6.3 6.3 6.3 6.1 6.0 6.0 5.8 5.8 5.8 5.7 5.7 5.6 5.5 5.3 5.3 5.2 4.9 5.1 5.0 5.0 5.0 5.2 5.2 5.3 5.5 5.5 5.6 5.7
8.3 8.6 8.7 8.9 8.7 8.9 8.7 8.3 7.8 7.2 7.0 6.7 6.9 6.8 6.8 6.5 6.5 6.4 6.4 6.5 6.5 6.3 6.3 6.3 6.1 6.0 6.0 5.9 5.9 5.9 5.8 5.8 5.8 5.6 5.3 5.4 5.1 5.3 5.4 5.2 5.0 5.2 5.3 5.3 5.4 5.2 5.3 5.3 5.3
8.6 8.4 9.0 8.8 8.8 8.6 8.6 8.3 8.1 7.5 7.9 7.7 7.5 7.0 6.8 6.7 6.7 6.5 6.3 6.6 6.8 6.6 6.4 6.4 6.3 6.1 6.1 5.9 5.8 5.7 5.7 5.7 5.6 5.4 5.2 5.3 5.5 5.5 5.5 5.4 5.4 5.4 5.4 5.4 5.1 5.4 5.5 5.5 5.5
8.4 8.8 9.0 9.0 9.0 8.6 8.4 8.4 8.2 8.2 7.8 7.7 7.6 7.2 6.8 6.6 6.6 6.5 6.2 6.2 6.5 6.5 6.4 6.4 6.3 6.3 6.2 6.0 5.8 5.7 5.7 5.5 5.5 5.4 5.2 5.2 5.4 5.4 5.5 5.4 5.6 5.6 5.6 5.3 5.2 5.1 5.1 5.5 5.6
8.4 8.7 8.9 9.1 9.0 8.7 8.4 8.4 8.1 7.9 7.9 7.7 7.5 7.4 6.7 6.5 6.5 6.6 6.3 6.3 6.3 6.3 6.3 6.3 6.3 6.3 6.1 6.1 5.9 5.9 5.9 5.5 5.3 5.5 5.5 5.5 5.5 5.6 5.4 5.6 5.5 5.6 5.4 5.7 5.5 5.3 5.2 5.3 5.3
8.5 8.5 8.5 9.1 8.9 8.7 8.4 8.4 8.2 8.0 7.8 7.8 7.6 7.4 7.0 6.5 6.4 6.4 6.4 6.0 5.8 5.8 5.9 6.1 6.1 6.1 6.1 6.0 6.0 6.0 5.9 5.7 5.5 5.5 5.4 5.4 5.4 5.5 5.3 5.4 5.5 5.3 5.4 5.3 5.5 5.5 5.4 5.5 5.6
8.4 8.8 9.5 8.8 9.0 8.8 8.6 9.1 8.6 8.6 7.9 7.6 7.5 7.3 6.9 6.6 6.4 6.3 6.2 5.9 5.7 5.6 5.8 5.7 5.9 5.9 5.8 5.9 5.8 6.0 5.9 5.8 5.7 5.5 5.3 5.3 5.4 5.4 5.4 5.4 5.5 5.4 5.3 5.2 5.5 5.4 5.6 5.6 5.6
8.8 9.5 9.1 8.8 8.7 8.8 8.6 8.7 8.6 8.5 8.3 8.0 7.5 7.2 7.0 6.5 6.5 6.3 6.5 6.4 6.2 5.6 5.7 5.8 5.8 5.9 5.7 5.7 5.9 6.0 5.8 5.9 5.7 5.5 5.5 5.4 5.5 5.4 5.3 5.3 5.3 5.3 5.3 5.2 5.2 5.1 5.4 5.4 5.3
9.4 9.5 8.9 8.8 8.5 8.7 8.5 8.6 8.3 8.8 8.5 8.2 7.9 7.5 7.3 6.9 6.6 6.6 6.4 6.4 6.4 6.2 5.8 5.7 5.8 5.6 5.7 5.5 5.7 5.8 5.9 6.0 6.0 5.9 5.9 5.8 5.8 5.8 5.5 5.4 5.3 5.3 5.0 4.8 4.9 4.9 5.1 5.2 5.2
8.5 8.7 8.8 8.5 8.4 8.7 8.7 8.9 8.8 8.7 9.0 8.4 7.9 7.9 7.6 7.4 6.7 6.6 6.4 6.3 6.3 6.3 6.2 6.0 5.9 5.7 5.6 5.9 5.7 5.7 5.9 6.1 6.2 6.2 6.2 6.2 6.0 5.8 5.7 5.6 5.6 5.4 5.2 5.1 4.8 5.0 5.1 5.2 5.2
8.2 9.1 9.5 8.6 8.0 8.3 8.7 8.7 8.9 8.9 8.9 8.7 8.7 8.1 7.7 7.4 7.2 6.9 6.6 6.5 6.3 6.1 6.1 6.0 5.8 5.6 5.6 5.7 5.7 5.8 6.1 6.1 6.2 6.1 6.2 6.2 6.1 5.8 5.8 5.6 5.5 5.6 5.6 5.8 5.6 5.4 5.5 5.4 5.4
8.2 9.1 9.5 9.0 8.0 8.4 8.5 8.9 8.7 9.0 9.0 9.0 8.7 8.4 7.9 7.6 7.4 7.1 7.1 6.8 6.5 6.4 6.1 5.9 5.8 5.7 5.6 5.6 5.8 5.9 6.1 6.3 6.3 6.1 6.4 6.3 6.0 5.7 5.6 5.7 5.6 5.8 5.8 5.9 6.0 5.8 5.7 5.5 5.5
8.6 9.2 8.4 8.5 8.7 9.6 8.4 9.5 9.3 8.7 8.9 9.0 8.9 8.7 8.2 7.8 7.6 7.5 7.0 7.0 6.9 6.5 6.3 6.2 6.0 6.0 5.9 5.9 5.9 5.9 6.0 6.1 6.0 6.1 6.1 6.2 6.1 5.8 5.8 5.8 5.7 5.8 5.9 6.0 6.0 5.8 5.6 5.4 5.7
8.2 8.5 8.3 8.5 8.7 9.6 9.3 8.9 9.5 8.9 9.2 9.4 9.0 8.9 8.5 8.2 7.7 7.7 7.5 6.8 6.8 6.8 6.7 6.5 6.3 6.2 6.0 6.0 5.9 5.9 6.0 6.1 6.2 6.2 6.3 6.1 6.0 6.0 5.8 5.7 5.7 5.6 5.7 5.9 6.0 5.9 5.9 5.8 5.8
8.1 7.6 8.2 8.7 9.2 9.7 9.6 9.4 9.6 9.5 9.2 9.1 8.8 8.9 8.7 8.5 7.9 7.6 7.5 7.3 7.1 6.9 6.8 6.9 6.7 6.5 6.4 6.2 6.2 6.2 6.2 6.3 6.3 6.4 6.4 6.0 5.9 5.9 5.8 5.7 5.6 5.8 5.8 5.7 5.7 5.8 5.8 5.9 5.9
7.5 8.1 9.3 9.8 9.9 9.9 9.6 8.9 9.5 9.4 9.3 9.0 8.8 8.8 8.8 8.9 8.2 7.8 7.7 7.7 7.4 7.4 7.2 7.0 6.9 6.9 6.7 6.4 6.2 6.3 6.3 6.4 6.3 6.3 6.3 6.0 6.0 5.8 5.7 5.7 5.6 5.6 5.6 5.6 5.6 5.6 5.5 5.6 5.6
7.9 8.6 9.6 9.5 9.9 9.9 9.3 8.9 9.3 9.2 8.9 8.9 9.0 8.9 8.8 8.9 8.4 8.3 8.0 7.9 7.7 7.4 7.2 7.1 7.2 7.2 7.0 6.7 6.6 6.5 6.3 6.4 6.4 6.3 6.2 6.2 5.8 5.6 5.7 5.8 5.7 5.6 5.6 5.6 5.7 5.7 5.6 5.5 5.4
8.1 8.1 9.1 9.6 9.7 9.7 9.6 9.6 8.7 9.1 9.2 9.3 9.2 9.0 8.8 8.7 8.6 8.6 8.2 8.2 8.0 7.7 7.3 7.1 7.4 7.3 7.1 6.9 6.8 6.9 6.5 6.2 6.4 6.3 6.2 6.1 5.9 5.8 5.9 6.0 6.0 5.6 5.6 5.7 5.8 5.8 5.8 5.8 5.6
7.9 8.4 8.8 9.1 9.8 9.6 9.7 9.7 9.6 9.6 9.4 9.5 9.6 9.0 8.8 8.7 8.6 8.7 8.4 8.5 8.3 7.9 7.5 7.4 7.4 7.3 7.2 6.9 6.7 6.5 6.5 6.5 6.3 6.4 6.3 6.1 6.0 6.1 6.0 6.0 6.0 5.9 5.8 5.7 5.7 5.9 6.0 5.9 5.7
7.8 8.0 8.3 9.6 9.6 9.9 9.9 9.7 9.7 9.4 9.3 9.4 9.2 8.8 8.7 8.3 8.9 8.8 8.6 8.5 8.1 8.1 8.0 7.6 7.4 7.5 7.2 7.0 6.6 6.4 6.4 6.2 6.2 6.4 6.4 6.2 6.0 5.9 5.7 5.6 5.8 5.9 5.9 5.7 5.7 5.7 5.8 5.9 5.9
8.2 8.7 9.3 9.6 9.7 9.6 9.6 9.6 9.6 9.6 9.2 9.3 9.0 8.8 8.9 8.8 8.9 8.8 8.6 8.4 8.1 7.8 7.9 7.6 7.4 7.1 7.1 7.0 6.9 6.7 6.5 6.2 5.9 6.1 6.4 6.3 6.1 5.8 5.4 5.4 5.3 5.4 5.6 5.7 5.7 5.8 5.9 5.8 5.7
Wind_Speed
15 10 3 3 3 4 10 8 3 7 4 4 9 2 8 10 7 5 17 13 18 17 20 17 13 15 14 13 14 14 15 14 13 13 12 11 11 10 10 7 7 6 6 8 7 7 8 8 9
8 7 3 3 1 9 10 7 9 8 6 8 8 4 3 11 11 14 17 16 17 17 19 18 14 14 14 13 14 15 14 14 13 11 10 10 9 8 7 7 6 6 7 7 7 8 8 9 8
6 3 4 2 5 9 9 8 10 9 8 7 4 5 3 5 9 17 17 20 17 15 17 19 14 12 14 14 13 14 13 13 12 10 9 9 8 6 7 7 7 7 8 7 7 8 7 7 7
4 5 4 5 9 10 9 5 8 8 7 3 6 8 7 5 15 10 20 18 16 14 16 18 13 13 12 12 12 11 11 11 10 8 6 11 8 6 6 7 7 7 7 8 7 8 8 6 7
6 3 1 8 9 7 5 2 3 3 6 6 1 7 10 7 10 19 19 16 16 14 16 17 12 11 13 11 10 10 10 9 8 7 7 7 7 6 6 7 6 6 6 6 6 7 7 6 6
4 4 5 11 11 6 4 3 2 6 6 8 11 14 8 11 16 18 17 15 15 13 16 17 14 11 12 11 11 10 9 9 6 7 6 5 5 5 6 6 6 5 4 4 5 5 6 5 4
5 5 9 7 8 6 5 4 1 4 6 9 10 10 10 14 16 17 15 14 14 14 13 16 16 12 11 11 9 9 10 8 7 6 6 5 5 4 4 3 3 4 3 3 3 4 5 4 3
5 4 5 6 9 7 5 3 3 2 9 12 4 5 12 16 18 16 15 14 14 13 13 12 14 15 12 14 11 10 9 8 7 6 4 3 4 4 5 4 4 3 2 2 3 3 4 4 4
3 4 6 8 7 5 5 5 3 2 10 3 3 4 18 20 19 17 15 14 13 11 13 13 14 13 11 11 13 11 8 6 7 9 6 8 2 3 5 1 3 2 3 3 3 5 6 7 9
5 4 9 6 3 3 6 3 7 5 9 5 7 12 20 21 19 17 16 15 15 14 13 12 12 12 12 8 12 9 9 10 7 5 6 3 3 4 5 3 3 6 5 5 5 7 8 10 13
3 6 10 6 2 4 7 5 2 4 6 6 11 19 21 21 18 17 15 14 14 13 11 11 10 11 11 7 8 10 9 6 7 5 6 7 3 2 5 6 7 7 6 5 9 7 11 11 7
5 7 7 3 4 5 7 7 4 1 5 3 13 20 20 20 19 17 15 14 13 13 12 11 11 8 9 9 8 7 5 6 5 6 6 5 7 7 6 7 6 6 6 2 4 8 13 11 12
5 9 5 4 5 6 7 6 5 6 8 13 16 18 18 17 17 15 13 12 12 13 13 13 12 10 9 7 7 6 5 7 6 6 6 6 6 3 6 6 8 7 5 6 7 6 8 13 10
8 5 3 2 5 6 5 6 6 7 12 14 17 17 16 17 17 15 13 12 13 12 13 12 13 12 12 9 7 5 7 6 6 5 5 6 8 6 5 5 7 8 7 9 8 6 5 7 10
4 4 5 2 3 4 4 7 6 12 13 16 15 16 15 16 16 16 14 12 13 12 12 13 13 13 12 11 9 9 8 9 7 6 5 7 8 7 7 5 5 6 6 7 8 8 7 9 8
7 5 6 5 3 4 6 6 11 14 15 16 16 16 15 17 17 15 14 11 10 7 11 12 11 13 13 11 8 8 9 7 6 6 6 6 6 6 7 5 5 6 7 5 6 6 6 7 6
6 4 3 5 2 2 5 6 8 14 15 15 16 17 16 16 17 16 15 15 14 7 10 7 12 12 12 10 8 9 8 7 8 8 7 7 7 6 4 6 4 5 5 4 4 4 6 2 5
4 7 3 4 4 6 9 9 11 12 15 16 16 16 17 17 19 17 17 15 15 15 12 12 11 11 10 8 8 7 6 7 8 7 8 7 6 7 6 4 4 4 2 3 1 5 5 3 6
5 8 6 5 5 6 5 8 7 13 14 15 16 17 18 19 17 17 17 16 15 15 15 16 12 12 10 9 8 8 7 6 5 6 6 7 6 4 4 4 2 3 2 3 2 6 6 6 5
14 12 11 4 3 6 7 11 5 7 13 16 18 18 18 17 16 17 17 16 17 16 15 15 14 12 11 8 8 6 5 5 4 4 7 6 5 4 4 3 2 3 4 3 5 5 7 5 3
16 15 12 5 9 11 7 15 6 4 7 11 15 18 18 18 18 17 17 17 16 16 17 16 16 14 11 8 7 6 5 2 1 3 4 4 5 4 2 1 3 3 6 5 5 5 5 6 5
19 14 9 8 7 9 0 11 6 5 7 12 15 18 18 19 18 17 17 16 16 15 14 15 15 15 12 10 8 9 5 5 1 3 2 4 5 3 1 1 2 3 5 4 4 5 7 4 6
16 6 10 9 11 12 15 8 10 4 7 5 12 16 20 18 18 17 15 14 14 13 13 13 13 13 12 10 9 8 8 4 2 3 4 4 5 4 3 2 2 3 4 3 5 6 7 6 5
15 9 12 11 12 13 17 8 11 6 2 7 4 8 17 19 18 18 15 13 11 12 12 12 14 14 13 11 11 10 7 6 4 5 5 4 5 5 3 3 3 3 2 4 4 5 6 7 6
10 16 12 13 13 12 6 7 12 10 10 5 6 2 12 18 18 17 17 15 14 15 15 14 15 15 15 13 12 11 10 9 7 7 6 5 5 4 5 3 2 2 2 2 3 4 4 6 7
13 17 13 14 13 14 6 9 12 3 8 5 6 4 7 16 17 18 17 16 16 17 17 16 17 16 15 13 12 11 10 7 6 6 5 4 4 4 5 3 2 2 2 1 2 2 6 5 6
13 13 17 18 8 9 6 5 8 14 8 9 8 4 8 11 16 18 18 16 15 16 17 17 17 15 14 13 11 12 11 7 6 8 7 5 5 6 4 3 2 1 1 2 3 4 5 6 6
16 11 12 11 15 15 13 9 9 8 11 10 9 4 7 10 13 15 15 15 13 14 14 15 15 15 14 12 11 10 10 9 9 8 6 6 5 4 5 3 1 1 1 2 4 4 5 6 6
11 13 11 11 13 13 12 9 5 5 10 10 11 4 4 8 13 15 15 14 11 12 14 14 14 15 13 11 11 11 10 10 11 10 9 8 6 4 3 1 1 3 4 4 4 4 4 7 6
10 19 18 10 15 12 13 12 11 8 13 9 10 2 2 3 10 13 15 14 14 12 11 11 12 13 12 11 10 10 9 9 9 9 10 8 6 3 1 1 3 3 3 3 4 5 6 6 7
Wind_Direction
154 165 166 233 212 73 58 64 73 94 107 52 120 59 64 30 6 62 135 136 139 139 135 147 140 133 132 126 121 122 123 125 124 122 124 129 125 124 114 117 125 109 103 100 95 87 99 96 99
146 143 217 280 337 70 77 65 70 59 69 125 114 123 78 82 58 131 135 143 148 139 145 141 138 139 132 133 130 127 126 129 124 124 125 123 123 126 127 125 114 115 108 112 107 104 93 94 103
171 255 287 321 27 54 79 68 98 93 103 131 103 39 43 64 121 138 130 145 150 143 143 124 144 138 133 132 126 127 129 126 127 130 137 130 125 122 135 138 119 122 118 111 105 106 99 98 104
217 191 220 28 61 77 60 94 130 104 97 55 88 82 90 81 134 130 143 148 145 145 142 134 146 142 135 130 142 135 127 123 121 132 132 149 147 134 136 137 122 119 115 113 116 117 111 104 105
256 249 330 78 80 80 76 59 164 84 86 106 125 96 101 118 118 136 145 154 145 146 134 148 155 152 143 142 134 136 136 138 147 138 145 139 154 161 134 122 121 109 117 120 119 125 122 119 113
260 274 32 47 60 77 90 137 208 65 90 110 110 115 89 122 141 145 149 151 150 147 149 141 157 154 146 146 152 151 148 157 160 142 136 137 144 145 132 150 144 132 143 133 134 127 123 126 125
294 315 19 8 47 71 88 156 240 78 110 104 133 112 118 145 144 150 153 151 146 155 147 151 162 156 155 150 158 148 154 149 145 152 155 154 159 161 151 156 159 159 162 133 151 153 140 159 173
286 290 359 59 20 68 119 120 126 109 75 121 125 144 161 150 155 154 155 155 152 157 151 151 163 164 171 163 169 165 159 161 164 174 155 161 175 193 175 202 211 206 205 203 182 183 191 198 225
278 272 17 27 15 61 143 139 102 90 135 108 75 130 130 146 156 156 159 160 159 172 165 169 168 175 177 171 155 175 174 179 177 179 172 203 257 307 46 70 236 243 245 257 243 233 227 231 233
281 341 3 350 43 64 150 162 134 151 141 137 109 109 131 150 160 165 168 164 176 176 178 178 175 173 165 190 144 189 177 193 194 184 152 251 180 235 283 273 233 249 255 258 245 249 258 241 249
14 358 346 20 67 136 131 133 129 129 192 162 151 144 151 157 166 172 175 172 178 176 183 184 181 169 179 189 177 177 183 190 180 202 216 175 198 230 231 256 243 227 196 269 251 228 243 285 244
305 11 1 36 141 131 143 124 142 126 13 114 145 156 158 166 173 176 178 176 176 184 187 188 181 179 201 181 195 193 195 198 209 193 212 219 230 179 273 278 240 221 248 76 321 312 308 290 272
329 356 38 100 127 122 136 138 103 106 88 118 141 157 166 170 174 177 176 172 180 186 190 192 192 187 193 205 200 221 214 197 213 209 207 243 266 262 229 239 268 283 191 214 208 212 259 280 258
340 347 75 101 118 133 146 158 184 131 126 134 152 164 170 173 171 169 178 179 185 190 190 194 198 189 196 201 206 220 227 231 242 248 245 244 267 275 287 265 245 237 238 236 224 209 261 267 263
320 244 152 111 164 128 172 177 193 145 152 149 162 171 172 175 174 178 182 187 187 192 186 198 199 192 199 204 201 212 225 221 236 241 242 263 263 259 274 275 288 281 282 248 230 237 241 266 262
279 246 242 80 209 131 237 95 139 163 168 164 166 176 182 181 183 184 188 189 200 201 196 198 201 197 193 202 202 218 218 234 243 246 253 250 255 261 267 270 287 321 289 287 261 248 244 248 263
217 279 346 121 186 296 248 352 135 176 184 175 176 179 187 191 193 190 197 190 191 203 194 217 201 208 195 196 209 220 223 231 245 252 262 256 273 284 286 267 303 301 296 253 249 247 257 269 269
176 245 170 24 53 242 281 277 159 189 196 189 185 186 191 197 199 197 199 201 203 182 188 203 210 209 199 198 208 219 222 233 244 256 265 270 246 258 246 265 298 288 311 253 324 286 283 294 291
256 268 275 100 39 304 288 305 296 180 202 201 200 192 196 201 198 195 198 202 207 210 193 198 198 196 192 201 203 209 218 228 245 261 267 265 242 203 226 272 256 249 291 314 307 285 300 288 267
238 250 246 271 222 301 294 295 354 199 205 211 206 202 203 201 202 199 199 203 206 209 210 199 200 192 195 204 214 220 223 233 262 276 282 245 205 198 226 297 297 311 299 296 313 302 295 265 312
239 247 253 297 314 269 275 265 186 161 220 219 218 216 205 204 199 199 198 203 209 208 207 207 202 195 194 208 203 199 214 231 248 254 253 220 213 194 238 318 346 323 298 338 323 319 303 314 319
242 217 258 253 267 276 333 294 223 154 214 211 217 218 214 204 204 204 198 197 207 208 203 201 202 208 202 195 209 216 214 217 217 242 182 178 171 173 196 77 6 1 336 353 336 354 333 348 347
246 228 253 260 265 263 263 252 278 189 273 211 213 214 217 205 206 203 207 199 200 196 191 188 187 195 207 197 215 196 205 199 194 188 175 133 141 167 132 45 27 13 335 39 11 351 355 323 319
245 218 236 249 258 261 256 243 274 247 322 322 142 212 209 208 205 203 202 189 187 183 180 178 180 182 184 188 192 198 195 209 194 180 186 169 159 147 109 82 44 26 3 46 29 3 19 354 339
218 226 237 233 233 245 247 244 256 313 295 314 341 220 206 198 195 201 195 190 183 182 179 175 179 179 179 183 184 190 193 199 198 188 178 158 147 155 128 118 78 79 72 61 21 25 21 11 356
218 234 231 231 239 245 145 252 259 329 316 278 292 236 193 201 191 199 193 193 186 187 180 177 180 180 175 181 181 179 187 187 186 189 144 170 157 145 135 111 71 43 104 87 17 15 354 14 355
196 233 247 266 245 281 269 215 256 257 295 271 276 241 196 194 193 193 193 191 193 186 182 183 177 177 179 179 180 175 176 190 160 150 163 152 155 132 137 132 112 58 168 314 323 30 350 341 353
257 268 210 230 254 240 251 239 276 283 305 307 342 316 206 177 189 192 189 187 185 180 178 180 175 177 179 174 177 178 175 172 159 154 175 166 144 135 153 162 182 329 340 303 309 326 47 350 360
199 233 239 273 224 256 252 250 261 316 298 327 322 345 335 185 181 184 181 181 163 167 168 176 171 172 176 170 174 172 174 172 165 163 164 169 170 158 171 189 320 345 343 358 336 337 16 353 2
273 213 231 223 228 240 277 287 303 286 289 291 303 29 22 271 174 181 177 160 148 151 154 162 161 162 163 152 155 172 156 167 176 172 163 162 170 177 153 45 42 46 24 14 358 353 11 8 5